Weather History for Butte, MT

Change the Weather History Date:

Friday, January 11, 2013

  Actual Average Record
Temperature  
Mean Temperature 0 °F 20 °F  
Max Temperature 7 °F 32 °F 50 °F (1953)
Min Temperature -7 °F 7 °F -38 °F (1963)
Degree Days  
Heating Degree Days 65 46  
Month to date heating degree days 543 509  
Since 1 July heating degree days 4208 4473  
Cooling Degree Days 0 0  
Month to date cooling degree days 0 0  
Year to date cooling degree days 0 0  
Moisture  
Dew Point -3 °F    
Average Humidity 75    
Maximum Humidity 87    
Minimum Humidity 63    
Precipitation  
Precipitation T in 0.02 in 0.61 in (1972)
Month to date precipitation 0.06 0.18  
Year to date precipitation 0.06 0.18  
Sea Level Pressure  
Sea Level Pressure 29.96 in    
Wind  
Wind Speed 8 mph (NW)    
Max Wind Speed 18 mph    
Max Gust Speed 23 mph    
Visibility 4 miles    
Events Snow    
T = Trace of Precipitation, MM = Missing Value Source: NWS Daily Summary

Daily Weather History Graph

Daily Weather History Graph

Search for Another Location

Airport:

Trip Planner

Search our weather history database for the weather conditions in past years. The results will help you decide how hot, cold, wet, or windy it might be!

Date:

Astronomy

Jan. 11, 2013 Rise Set
Actual Time 8:09 AM MST 5:06 PM MST
Civil Twilight 7:35 AM MST 5:40 PM MST
Nautical Twilight 6:58 AM MST 6:17 PM MST
Astronomical Twilight 6:22 AM MST 6:53 PM MST
Moon 7:43 AM MST (1/11) 5:32 PM MST (1/11)
Length of Visible Light 10h 04m
Length of Day
8h 57m
Waning Crescent, 0% of the Moon is Illuminated
Jan 11
Waning Crescent
Jan 11
New
Jan 18
First Quarter
Jan 26
Full
Feb 3
Last Quarter

Hourly Weather History & Observations

Time (MST) Temp. Windchill Dew Point Humidity Pressure Visibility Wind Dir Wind Speed Gust Speed Precip Events Conditions
12:53 AM 7.0 °F -4.5 °F -2.9 °F 64% 29.85 in 10.0 mi NNW 6.9 mph - N/A   Overcast
1:53 AM 6.1 °F -10.2 °F -4.0 °F 63% 29.87 in 10.0 mi NNW 12.7 mph - N/A   Overcast
2:53 AM 5.0 °F -9.1 °F -2.9 °F 70% 29.91 in 2.0 mi NNW 9.2 mph - 0.00 in Snow Light Snow
3:04 AM 5.0 °F -10.8 °F -2.2 °F 72% 29.69 in 1.8 mi NNW 11.5 mph - 0.00 in Snow Light Snow
3:19 AM 3.2 °F -13.1 °F -2.2 °F 78% 29.68 in 2.0 mi NNW 11.5 mph - 0.00 in Snow Light Snow
3:31 AM 3.2 °F -13.9 °F -2.2 °F 78% 29.69 in 1.8 mi NNW 12.7 mph - 0.00 in Snow Light Snow
3:38 AM 3.2 °F -13.9 °F -2.2 °F 78% 29.69 in 2.5 mi NNW 12.7 mph - 0.00 in Snow Light Snow
3:50 AM 3.2 °F -12.2 °F -4.0 °F 72% 29.68 in 3.0 mi North 10.4 mph - 0.00 in Snow Light Snow
3:53 AM 3.9 °F -12.2 °F -4.0 °F 70% 29.92 in 4.0 mi North 11.5 mph - 0.00 in Snow Light Snow
4:53 AM 3.9 °F -13.0 °F -7.1 °F 60% 29.95 in 10.0 mi North 12.7 mph - 0.00 in   Mostly Cloudy
5:53 AM 3.0 °F -15.5 °F -7.1 °F 63% 29.96 in 3.0 mi North 15.0 mph 21.9 mph 0.00 in Snow Light Snow
6:53 AM 3.0 °F -14.1 °F -5.1 °F 69% 29.99 in 7.0 mi NW 12.7 mph - 0.00 in   Overcast
7:43 AM 3.2 °F -12.2 °F -5.8 °F 66% 29.76 in 2.5 mi NW 10.4 mph 19.6 mph 0.00 in Snow Light Snow
7:53 AM 3.0 °F -11.5 °F -4.0 °F 73% 30.02 in 3.0 mi NW 9.2 mph - 0.00 in   Haze
8:14 AM 3.2 °F -11.3 °F -4.0 °F 72% 29.77 in 2.0 mi NW 9.2 mph - 0.00 in Snow Light Snow
8:21 AM 3.2 °F -10.3 °F -4.0 °F 72% 29.77 in 1.2 mi NW 8.1 mph - 0.00 in Snow Light Snow
8:53 AM 3.0 °F -12.5 °F -4.0 °F 73% 30.05 in 1.5 mi NNW 10.4 mph - 0.00 in Snow Light Snow
9:08 AM 3.2 °F -11.3 °F -5.8 °F 66% 29.78 in 2.5 mi NW 9.2 mph - 0.00 in   Haze
9:45 AM 3.2 °F -10.3 °F -5.8 °F 66% 29.79 in 1.5 mi NW 8.1 mph - 0.00 in Snow Light Snow
9:53 AM 3.0 °F -10.5 °F -4.0 °F 73% 30.08 in 0.8 mi NW 8.1 mph - 0.00 in Snow Light Snow
10:20 AM 3.2 °F -11.3 °F -2.2 °F 78% 29.81 in 1.2 mi NW 9.2 mph - 0.00 in Snow Light Snow
10:51 AM 3.2 °F -11.3 °F -2.2 °F 78% 29.82 in 3.0 mi NW 9.2 mph - 0.00 in   Haze
10:53 AM 3.0 °F -10.5 °F -2.9 °F 76% 30.10 in 3.0 mi NW 8.1 mph - 0.00 in   Haze
11:15 AM 3.2 °F -9.1 °F -2.2 °F 78% 29.83 in 8.0 mi NNW 6.9 mph - N/A   Overcast
11:53 AM 5.0 °F -4.1 °F -4.0 °F 66% 30.11 in 10.0 mi Variable 4.6 mph - N/A   Overcast
12:31 PM 5.0 °F -8.1 °F -2.2 °F 72% 29.83 in 2.5 mi NW 8.1 mph - 0.00 in Snow Light Snow
12:43 PM 5.0 °F -6.9 °F -0.4 °F 78% 29.83 in 1.2 mi NW 6.9 mph - 0.00 in Snow Light Snow
12:53 PM 5.0 °F -6.9 °F -0.4 °F 78% 29.83 in 1.0 mi NW 6.9 mph - N/A Snow Light Snow
1:26 PM 5.0 °F -6.9 °F -0.4 °F 78% 29.84 in 0.8 mi Variable 6.9 mph - 0.00 in Snow Light Snow
1:53 PM 5.0 °F -9.1 °F -0.9 °F 76% 30.14 in 0.8 mi NW 9.2 mph - 0.00 in Snow Light Snow
2:07 PM 5.0 °F -6.9 °F -0.4 °F 78% 29.86 in 1.0 mi NW 6.9 mph - 0.00 in Snow Light Snow
2:53 PM 5.0 °F -9.1 °F -0.9 °F 76% 30.17 in 1.2 mi NW 9.2 mph - 0.00 in Snow Light Snow
3:42 PM 5.0 °F -8.1 °F -0.4 °F 78% 29.90 in 2.0 mi WNW 8.1 mph - 0.00 in Snow Light Snow
3:53 PM 5.0 °F -9.1 °F -0.9 °F 76% 30.20 in 2.0 mi WNW 9.2 mph - 0.00 in Snow Light Snow
4:15 PM 5.0 °F -8.1 °F -0.4 °F 78% 29.91 in 4.0 mi NW 8.1 mph - 0.00 in   Haze
4:53 PM 5.0 °F -8.1 °F -0.9 °F 76% 30.22 in 8.0 mi NW 8.1 mph - 0.00 in   Overcast
5:53 PM 3.9 °F -10.4 °F -0.0 °F 84% 30.24 in 3.0 mi NW 9.2 mph - 0.00 in Snow Light Snow
6:53 PM 3.9 °F -8.2 °F -0.9 °F 80% 30.25 in 9.0 mi NNW 6.9 mph - 0.00 in   Scattered Clouds
7:34 PM 3.2 °F -6.2 °F -0.4 °F 85% 29.95 in 8.0 mi North 4.6 mph - N/A   Mostly Cloudy
7:53 PM 1.9 °F -10.6 °F -2.0 °F 83% 30.27 in 7.0 mi NNW 6.9 mph - N/A   Overcast
8:53 PM 1.9 °F - -2.0 °F 83% 30.27 in 10.0 mi Calm Calm - N/A   Overcast
9:37 PM -0.4 °F -10.4 °F -4.0 °F 85% 29.96 in 8.0 mi ESE 4.6 mph - N/A   Mostly Cloudy
9:53 PM -2.9 °F -15.0 °F -6.0 °F 87% 30.29 in 6.0 mi SE 5.8 mph - N/A   Partly Cloudy
10:53 PM -5.1 °F -13.6 °F -9.0 °F 83% 30.31 in 9.0 mi ESE 3.5 mph - N/A   Mostly Cloudy
11:53 PM -7.1 °F - -11.0 °F 83% 30.32 in 10.0 mi Calm Calm - N/A   Scattered Clouds